This is the latest recevied weather packets stored in our database for station/object KC5DAQ-27. If no packets are shown the sender has not sent any weather packets the latest 1 day(s).
| Time | Temp. | Humidity | Pressure | Rain* | Wind** | Luminosity | Snow |
|---|---|---|---|---|---|---|---|
| 1777986630 | 22.22° C | 95% | 1000.5 hPa | 0 mm | 2.24 m/s, 171° | 90 W/m² | - |
| 1777986568 | 22.22° C | 95% | 1000.5 hPa | 0 mm | 2.68 m/s, 178° | 93 W/m² | - |
| 1777986510 | 22.22° C | 95% | 1000.5 hPa | 0 mm | 2.24 m/s, 195° | 97 W/m² | - |
| 1777986448 | 22.22° C | 95% | 1000.4 hPa | 0 mm | 1.79 m/s, 196° | 100 W/m² | - |
| 1777986388 | 22.22° C | 95% | 1000.4 hPa | 0 mm | 2.24 m/s, 216° | 104 W/m² | - |
| 1777986328 | 22.22° C | 95% | 1000.4 hPa | 0 mm | 2.68 m/s, 180° | 107 W/m² | - |
| 1777986268 | 22.22° C | 95% | 1000.5 hPa | 0 mm | 2.68 m/s, 200° | 118 W/m² | - |
| 1777986209 | 22.22° C | 95% | 1000.4 hPa | 0 mm | 3.58 m/s, 183° | 111 W/m² | - |
| 1777986148 | 22.22° C | 95% | 1000.3 hPa | 0 mm | 3.13 m/s, 168° | 107 W/m² | - |
| 1777986087 | 22.22° C | 95% | 1000.3 hPa | 0 mm | 2.68 m/s, 178° | 111 W/m² | - |
| 1777986028 | 22.22° C | 95% | 1000.3 hPa | 0 mm | 2.68 m/s, 179° | 113 W/m² | - |
| 1777985970 | 22.22° C | 95% | 1000.3 hPa | 0 mm | 2.68 m/s, 172° | 113 W/m² | - |
| 1777985908 | 22.22° C | 95% | 1000.4 hPa | 0 mm | 2.24 m/s, 199° | 106 W/m² | - |
| 1777985847 | 22.22° C | 95% | 1000.3 hPa | 0 mm | 2.24 m/s, 157° | 102 W/m² | - |
| 1777985789 | 22.22° C | 95% | 1000.3 hPa | 0 mm | 2.24 m/s, 182° | 93 W/m² | - |
| 1777985728 | 22.22° C | 95% | 1000.3 hPa | 0 mm | 2.68 m/s, 195° | 91 W/m² | - |
| 1777985667 | 22.22° C | 95% | 1000.3 hPa | 0 mm | 2.68 m/s, 159° | 92 W/m² | - |
| 1777985608 | 22.22° C | 95% | 1000.2 hPa | 0 mm | 2.24 m/s, 169° | 93 W/m² | - |
| 1777985549 | 22.22° C | 95% | 1000.2 hPa | 0 mm | 2.24 m/s, 192° | 99 W/m² | - |
| 1777985487 | 22.22° C | 95% | 1000.2 hPa | 0 mm | 2.68 m/s, 178° | 102 W/m² | - |
| 1777985427 | 22.22° C | 95% | 1000.2 hPa | 0 mm | 3.13 m/s, 204° | 106 W/m² | - |
| 1777985367 | 22.22° C | 95% | 1000.2 hPa | 0 mm | 2.68 m/s, 179° | 102 W/m² | - |
| 1777985307 | 22.22° C | 95% | 1000.3 hPa | 0 mm | 1.79 m/s, 196° | 106 W/m² | - |
| 1777985248 | 21.67° C | 95% | 1000.3 hPa | 0 mm | 2.24 m/s, 176° | 100 W/m² | - |
| 1777985187 | 21.67° C | 95% | 1000.3 hPa | 0 mm | 2.68 m/s, 200° | 102 W/m² | - |
* Rain latest hour (hover to see other rain measurements)
** Current wind speed in m/s (hover to see current wind gust speed)